Regional Weather Roundup
Issued by NWS

Home | Current Version | Previous Version | Graphics & Text | Print | Product List | Glossary On
Versions: 1 2 3 4 5 6 7 8 9 10 11 12 13 14 15 16 17 18 19 20 21 22 23 24 25 26 27
000
ASUS45 KTFX 021110
RWRMT
MONTANA REGIONAL WEATHER ROUNDUP
NATIONAL WEATHER SERVICE GREAT FALLS MT
400 AM MST FRI DEC 02 2016

NOTE: "FAIR" INDICATES FEW OR NO CLOUDS BELOW 12000 FEET WITH NO
SIGNIFICANT WEATHER AND/OR OBSTRUCTIONS TO VISIBILITY.

MTZ001>007-043-021200-
WEST OF THE DIVIDE

CITY           SKY/WX    TMP DP  RH WIND       PRES   REMARKS
KALISPELL      FOG       28  28 100 CALM      30.21S VSB 1/2
MISSOULA       CLOUDY    31  28  89 NE3       30.26S
BUTTE          CLOUDY    16  14  92 CALM      30.17S
MULLAN PASS    CLOUDY    20  18  92 VRB5      30.15S FOG
ANACONDA         N/A     25  21  86 CALM      30.19S
DEER LODGE       N/A     25  25 100 CALM      30.22S
EUREKA           N/A     27  25  93 CALM      30.22S
HAMILTON         N/A     30  21  69 CALM      30.25S
LIBBY            N/A     28  27  93 CALM      30.23S
PLAINS           N/A     32  25  76 CALM      30.25R
RONAN            N/A     32  28  85 CALM      30.24R
$$

MTZ008-052>055-021200-
SOUTHWEST MONTANA

CITY           SKY/WX    TMP DP  RH WIND       PRES   REMARKS
BOZEMAN        CLOUDY    28  25  88 SE5       30.18S
DILLON         CLOUDY    23  15  71 S3        30.15S
W YELLOWSTONE  CLOUDY    14  10  85 CALM      30.13R
ENNIS          MOCLDY    21  19  93 E3        30.20S
THREE FORKS      N/A     25  25 100 CALM      30.15R
TWIN BRIDGES     N/A     23  15  71 E5        30.13R
$$

MTZ009-010-012-014-046-048-049-054-021200-
EAST SLOPES AND CENTRAL MONTANA

CITY           SKY/WX    TMP DP  RH WIND       PRES   REMARKS
CUT BANK       CLEAR     18  16  92 SW7       30.09F WCI   9
GREAT FALLS    CLOUDY    27  25  92 S6        30.14F WCI  20
HELENA         CLOUDY    32  20  61 W9        30.17S WCI  24
AUGUSTA          N/A     20  19  96 W6        30.10S WCI  12
BOWMANS CRNR     N/A     23  22  95 S8        30.10F WCI  14
CHOTEAU          N/A     23  21  93 SW6       30.12F WCI  16
CONRAD           N/A     10  10 100 NW2       30.11F
FAIRFIELD        N/A     24  20  84 S3        30.11S
POWER          SNOW      22  21  95 S6        30.11F VSB 3/8 WCI  15
RAYNESFORD     FLURRIES  29  27  91 W2        30.13F
ULM            CLOUDY    27  26  96 W6        30.14F WCI  21
$$

MTZ011-013-016-021-045-047-050-051-021200-
NORTH CENTRAL MONTANA

CITY           SKY/WX    TMP DP  RH WIND       PRES   REMARKS
HAVRE          MOCLDY    27  24  89 SW15      30.13R WCI  15
LEWISTOWN      LGT SNOW  27  25  92 SW6       30.12S FOG     WCI  20
N BAR RANCH    FLURRIES  28  25  86 NW8       30.12R WCI  20
CHINOOK          N/A     25  23  93 CALM      30.13S
DENTON         LGT SNOW  29  27  95 S7        30.10S WCI  21
GEYSER         FLURRIES  29  27  92 W12       30.12S WCI  19
GRASS RANGE    MOCLDY    29  26  87 W17       30.08S WCI  17
JUDITH GAP     LGT SNOW  25  24  95 NW6       30.11R FOG     WCI  18
ROY              N/A     27  25  95 MISG      30.10R
STANFORD       FLURRIES  28  27  96 W7        30.11S WCI  20
WINIFRED       FLURRIES  28  28 100 MISG      30.11S
$$

MTZ017>020-022>027-061-062-021200-
NORTHEAST MONTANA

CITY           SKY/WX    TMP DP  RH WIND       PRES   REMARKS
GLASGOW        CLOUDY    28  25  88 W8        30.12R WCI  20
JORDAN           N/A     30  26  85 W3        30.12S
SIDNEY         CLOUDY    22  20  92 S3        30.14R
WOLF POINT     CLOUDY    28  24  85 SW3       30.14S
PLENTYWOOD       N/A     27  25  93 CALM      30.12R
POPLAR           N/A     25  21  86 CALM      30.14S
$$

MTZ028>42-056>058-021200-
SOUTHCENTRAL AND SOUTHEAST MONTANA

CITY           SKY/WX    TMP DP  RH WIND       PRES   REMARKS
BAKER          CLOUDY    20  16  84 SE3       30.09S
BILLINGS       MOCLDY    28  21  75 SW6       30.14R WCI  22
LIVINGSTON     CLOUDY    28  21  75 W15       30.14S WCI  16
MILES CITY     PTCLDY    17  13  84 CALM      30.13R
BIG TIMBER     MOCLDY    28  23  80 W23G29    30.14S WCI  14
EKALAKA          N/A     24  20  85 CALM      30.04R
FORSYTH          N/A     25  21  86 W7        30.15R WCI  17
HARLOWTON      MOCLDY    29  23  79 NW12      30.12R WCI  19
LAUREL           N/A     29  12  49 CALM      30.11R
ROUNDUP          N/A     23  17  78 S2        30.04R
$$

REGIONAL REPORTS...DAKOTAS

CITY           SKY/WX    TMP DP  RH WIND       PRES   REMARKS
WILLISTON      CLOUDY    28  23  81 S3        30.14R
MINOT          CLOUDY    27  19  72 S6        30.16R WCI  20
DICKINSON      CLOUDY    22  19  89 S5        30.10R
BEACH          CLOUDY    23  23 100 S3        30.12S
CROSBY         CLOUDY    27  25  93 S8        30.16R WCI  18
TIOGA          CLOUDY    23  23 100 SE6       30.15R WCI  16
WATFORD CITY   CLOUDY    27  25  93 SE7       30.13S WCI  19
BISMARCK       CLOUDY    25  21  85 CALM      30.19R
GRAND FORKS    CLOUDY    29  21  72 N9        30.18S WCI  20
FARGO          CLOUDY    29  22  75 N14       30.18R WCI  18
BUFFALO SD       N/A     24  22  91 S3        30.03R
RAPID CITY     CLOUDY    24  19  81 CALM      30.10R
$$

REGIONAL REPORTS...WYOMING/IDAHO/WASHINGTON

CITY           SKY/WX    TMP DP  RH WIND       PRES   REMARKS
GILLETTE       CLOUDY    25  22  88 CALM      30.09R
SHERIDAN       CLOUDY    30  24  78 NW8       30.13R WCI  22
BUFFALO WY     PTCLDY    28  18  66 NW8       30.11R WCI  20
CODY           CLEAR     22  13  68 W5        30.13R
YELLOWSTONE LA   N/A      8   7  95 CALM      30.10R
IDAHO FALLS    FOG       17  14  88 CALM      30.21S VSB 1/4
SALMON         CLOUDY    27  25  93 CALM      30.24S
BOISE          CLEAR     22  19  89 CALM      30.29R
SPOKANE        FOG       29  27  92 S9        30.28F VSB 1   WCI  20
$$

REGIONAL REPORTS...ALBERTA

CITY           SKY/WX    TMP DP  RH WIND       PRES   REMARKS
EDMONTON         N/A     19  19 100 S3        30.02F VSB 5/8
CALGARY        PTCLDY    21  19  93 SW5       30.02F
LETHBRIDGE     CLEAR     19 N/A N/A SW6       30.07F WCI  11
MEDICINE HAT   CLOUDY    27  25  93 SW5       30.11F FOG
WATERTON GATE    N/A     30  19  64 SW18G26     N/A  WCI  18
CARDSTON         N/A     23  18  80 SW8         N/A  WCI  14
MILK RIVER       N/A     18  16  93 W8          N/A  WCI   7
ONEFOUR          N/A     25  25 100 W8          N/A  WCI  16
$$

REGIONAL REPORTS...SASKATCHEWAN

CITY           SKY/WX    TMP DP  RH WIND       PRES   REMARKS
SWIFT CURRENT  CLOUDY    23  23 100 W9        30.05S FOG     WCI  13
REGINA         CLOUDY    27  25  93 SE2       30.11R
SASKATOON      CLOUDY    28  23  80 W2        30.13S
CYPRESS HILLS    N/A     21  18  86 W5          N/A
VAL MARIE        N/A     23  21  93 SW7         N/A  WCI  15
ROCKGLEN         N/A     21  21 100 CALM        N/A
ASSINIBOIA       N/A     27  25  93 S3          N/A
$$




USA.gov is the U.S. government's official web portal to all federal, state and local government web resources and services.